NOAA 16 DEB, 41410

Orbit data source: Space-Track

NOAA 16 DEB, 41410 is space debris in SSO originally from a launch on Thu, 21 Sep 2000 UTC launched from the Air Force Western Test Range (AFWTR). Debris objects in space refer to the collection of defunct objects orbiting the Earth. Examples of debris include non-operational satellites, rocket bodies, and fragments generated from explosions, collisions, or faulty payload assembly.

Loading next visibility...
Identifier
41410, 2000-055KP
Orbit
SSO
Country
Flag of USUS
Related business
Manufacturer
Unknown
Mission
Spacecraft
Bus & Motor
Unknown
Mass
Unknown
Launch date (UTC)
2000-09-21 (25 years ago)
Launch vehicle
Unknown
Launch site
Air Force Western Test Range (AFWTR)
Object type
Payload
Rocket body
Debris
Shape & HBR
Unknown shape, 0.1 m
Radar Cross Section
Small (<0.1 m²)

Expand to show TLE details & history
Last TLE update: 5 days ago

TLE from 5 days ago
0 NOAA 16 DEB
1 41410U 00055KP  25289.05662591  .00004215  00000-0  20367-2 0  9992
2 41410  98.7123 329.5814 0023675 184.7507 175.3448 14.18935882497213
Epoch: 2025-10-16T01:21Z
TLE epoch observation values (Epoch: 2025-10-16T01:21:32.478Z)
Latitude
-0°
Longitude
-75.62575°
Altitude
848.877 km
Speed
7.419 km/s
True Right ascension
21h 58m 19s
True Declination
0° 00' 00"
Sunlit
Object was in full shadow at epoch
Visualization orbit readout
Latitude
Unknown
Longitude
Unknown
Altitude
Unknown
Speed
Unknown
Apparent Right ascension
Unknown
Apparent Declination
Unknown
Sunlit
N/A
Visualization observer readout
Local Sidereal Time
08:29:11
Azimuth
Unknown
Elevation
Unknown
Doppler factor
Unknown
Orbital elements
Apogee altitude
843.17 km
Perigee altitude
809.058 km
Semi-major axis
7,204.251 km
Eccentricity
0.00237
Inclination
98.7123°
RAAN
329.5814°
Arg. of periapsis
184.7507°
True anomaly
175.36675°
Mean anomaly
175.3448°
Eccentric anomaly
175.35578°
Mean motion
3.54944 °/min
Orbital period
101.42 mins
BSTAR
0.0020367
Loading maneuver chart data...
Computing Atmospheric mass density...
Loading historical data...
Loading historical data...
Loading historical data...
Loading historical data...
Loading historical data...
Loading historical data...
Loading historical data...

Documentation

Showing up to 5 results
|